Location: Newark
(13.8117°N, 3.6025°W)
Time: 18:15:04
(UTC+00:00)

Explorer 11/Cluster Stage 4 - Pass Details

Date: 31 August 2019
Orbit: 467 x 1260 km, 28.8° (Epoch: 23 September)

Event Time Altitude Azimuth Distance (km) Brightness Sun altitude
Rises 04:27:15 0° 232° (SW) 2,732 - -23.5°
Reaches altitude 10° 04:29:21 10° 227° (SW) 1,925 - -23.0°
Exits shadow 04:32:35 43° 197° (SSW) 920 6.6 -22.2°
Maximum altitude 04:33:44 55° 149° (SSE) 820 6.7 -22.0°
Drops below altitude 10° 04:39:13 10° 72° (ENE) 2,405 10.3 -20.7°
Sets 04:42:07 0° 68° (ENE) 3,487 11.5 -20.0°
